Tracking 18984 objects as of 24-Feb-2018
HD Live streaming from Space Station
objects crossing your sky now

COSMOS 1150

Track COSMOS 1150 now!
10-day predictions
COSMOS 1150 is classified as:


NORAD ID: 11667
Int'l Code: 1980-003A
Perigee: 969.8 km
Apogee: 1,018.8 km
Inclination: 82.9 °
Period: 104.8 minutes
Semi major axis: 7365 km
RCS: 2.2107 m2 (large)
Launch date: January 14, 1980
Source: Commonwealth of Independent States (former USSR) (CIS)
Launch site: PLESETSK MISSILE AND SPACE COMPLEX (PKMTR)
aabbcc
Your satellite tracking list
Your tracking list is empty




NASA's NSSDC Master Catalog

Two Line Element Set (TLE):
1 11667U 80003A   18054.57796295 +.00000034 +00000-0 +19543-4 0  9993
2 11667 082.9483 257.7563 0033298 095.2024 289.5445 13.73457510905646
Source of the keplerian elements: AFSPC